Location: Recife
(8.0585°S, 34.8848°W)
Time: 09:32:33
(UTC-03:00)

Vanguard 3 - Pass Details

Date: 23 April 2026
Orbit: 507 x 3204 km, 33.4° (Epoch: 11 May)

Event Time Altitude Azimuth Distance (km) Brightness Sun altitude
Exits shadow 03:56:54 - 329° (NNW) 2,473 9.4 -21.4°
Reaches altitude 10° 03:57:14 10° 330° (NNW) 2,363 9.3 -21.3°
Maximum altitude 04:02:32 44° 43° (NE) 1,474 8.8 -20.0°
Drops below altitude 10° 04:11:30 10° 111° (ESE) 3,983 11.5 -17.9°
Sets 04:15:59 0° 116° (ESE) 5,458 12.3 -16.8°
